Theta_e
350 353 357 358 359 359 359 359 360 361 360 361 361 360 361 359 357 355 356 357 360 359 360 361 361 362 361 358 359 360 360 361 362 360 360 360 361 360 359 358 362 356 358
351 354 359 359 360 361 361 361 361 361 361 362 361 361 361 361 361 360 360 361 361 361 361 361 361 361 361 360 358 360 361 361 361 361 360 362 361 360 359 361 362 357 358
350 355 358 360 362 361 362 362 362 362 361 361 360 360 360 360 360 361 361 361 361 361 362 360 360 360 361 362 362 361 361 362 360 359 362 357 359 361 360 360 360 358 358
352 354 357 362 363 361 362 362 362 362 362 362 362 361 361 362 361 359 359 359 359 359 359 360 359 359 359 361 361 360 361 361 358 358 355 354 353 359 360 359 359 358 358
354 356 361 362 361 361 362 362 362 362 362 361 361 361 360 362 362 359 359 360 359 358 359 359 360 360 360 361 362 361 362 360 358 360 356 356 356 359 360 359 358 358 358
353 356 361 362 361 361 363 362 362 362 362 362 361 360 361 361 362 361 361 360 358 356 355 358 360 360 361 362 362 360 360 359 364 356 356 358 360 359 360 359 357 357 358
353 356 360 362 362 362 362 362 361 362 361 361 361 362 362 362 361 360 361 360 358 359 360 362 362 360 359 361 361 361 360 358 355 358 356 357 358 357 356 355 355 355 355
352 354 357 361 362 362 362 362 360 361 360 361 362 360 361 359 359 360 360 361 360 360 360 361 361 361 359 359 360 359 357 356 354 353 353 353 357 355 354 354 353 353 353
352 355 357 358 363 361 358 361 362 360 361 361 360 361 362 360 359 358 358 360 359 359 359 359 360 360 360 358 357 357 354 351 351 349 347 348 355 353 353 353 353 353 353
352 354 358 361 363 359 359 361 361 362 361 360 361 362 360 359 359 358 361 360 359 359 358 358 358 360 361 357 357 354 352 351 350 350 347 350 353 352 352 353 353 354 354
348 350 352 356 358 360 359 359 361 361 362 361 360 358 357 354 355 357 362 360 358 358 357 357 359 359 361 358 358 354 354 345 345 348 346 352 352 352 353 353 354 355 356
346 346 350 350 354 356 355 361 360 357 357 356 358 360 356 360 359 356 359 359 359 358 359 359 361 360 360 353 356 360 345 345 347 348 347 352 353 353 353 354 354 356 357
346 344 347 352 357 355 357 354 356 354 353 357 363 361 361 356 357 356 355 356 360 358 358 358 358 354 354 350 350 346 345 345 347 348 348 351 352 353 354 355 356 358 360
344 345 348 353 358 359 355 353 353 353 351 353 359 361 359 354 356 358 355 358 361 359 360 357 356 358 355 353 349 345 345 346 348 350 348 352 352 354 356 358 360 360 361
345 347 348 354 357 360 357 353 353 352 350 356 357 358 357 355 356 355 359 358 361 359 356 355 353 352 352 351 349 349 348 349 350 351 352 351 354 355 355 357 360 361 362
345 347 349 352 357 358 356 358 354 354 356 356 357 357 360 357 358 355 358 358 358 357 356 356 354 354 354 353 352 351 350 350 353 353 353 354 352 354 356 358 360 360 360
346 349 350 352 354 357 355 356 356 355 354 354 354 360 361 361 360 363 359 358 358 361 362 360 357 355 352 351 354 354 354 354 353 354 357 358 356 353 353 355 356 359 361
347 349 351 347 352 354 356 359 355 354 354 354 355 358 360 361 362 363 358 359 366 362 358 354 352 350 351 352 353 353 354 355 356 358 360 358 360 356 359 357 355 358 360
349 350 350 350 350 353 359 358 358 360 355 356 360 359 362 358 362 363 358 362 370 362 360 354 354 352 353 353 350 354 357 357 358 356 361 361 361 359 359 362 361 362 363
350 352 353 352 354 357 357 359 356 355 354 356 358 357 361 360 360 363 359 365 367 360 359 356 358 358 357 359 349 351 358 360 362 361 358 357 359 359 359 365 365 363 362
349 350 352 354 356 355 353 351 350 349 352 354 357 361 362 361 359 365 359 364 365 362 364 364 357 359 356 363 351 351 354 357 358 361 362 359 359 360 362 363 361 359 358
349 351 352 354 356 355 354 354 352 353 351 353 357 361 359 356 360 361 362 362 366 361 365 363 364 356 354 362 353 351 343 348 352 358 361 359 357 358 359 358 358 357 358
348 351 351 354 357 358 359 356 360 366 355 351 355 355 358 358 358 363 360 363 366 365 360 367 366 364 351 355 359 352 340 339 345 352 355 359 358 355 354 354 354 355 358
348 351 353 356 357 358 361 358 358 350 346 347 351 353 357 358 359 361 362 364 366 362 367 365 363 363 363 355 358 354 356 356 343 341 351 356 354 353 356 354 352 357 362
349 350 352 357 358 356 360 360 352 351 350 351 352 359 360 362 362 359 362 362 363 359 366 367 367 366 362 357 354 356 358 354 355 343 337 342 350 350 357 355 358 359 361
349 349 350 354 356 357 359 356 356 354 354 349 352 352 352 353 356 362 361 363 365 365 363 364 368 364 365 363 358 357 352 346 347 348 345 345 344 350 357 361 358 357 356
Wind_Speed
7 11 7 8 10 12 12 13 13 14 15 14 15 15 15 14 14 12 13 12 14 13 11 11 12 13 13 14 13 13 14 15 15 15 16 16 15 14 10 7 12 16 13
12 12 9 10 11 12 13 13 14 15 15 15 14 15 14 14 14 13 13 12 13 12 12 12 13 12 13 15 14 14 14 13 14 14 17 17 15 13 14 14 14 13 13
12 12 13 10 12 12 12 14 15 15 15 15 15 14 14 14 14 14 13 14 14 13 13 12 12 12 12 13 13 12 13 14 11 8 7 14 14 14 14 13 13 12 12
11 12 14 8 12 11 13 13 13 14 15 14 14 14 14 14 15 15 15 15 16 15 14 13 13 14 14 15 14 13 13 12 6 4 6 14 13 12 12 12 11 10 11
10 12 12 11 11 11 13 13 13 14 14 13 14 13 13 14 16 15 15 16 17 16 16 15 15 15 11 14 15 14 13 10 5 8 10 10 11 10 11 9 12 12 13
12 14 12 10 11 11 12 13 12 13 13 14 13 14 14 14 15 14 14 16 17 15 13 11 14 14 13 15 15 14 11 5 4 10 11 12 13 11 12 12 11 10 11
12 13 14 11 12 11 12 12 12 13 12 12 12 13 14 13 14 15 14 15 17 12 11 13 13 14 13 13 14 13 9 6 9 11 9 11 12 10 11 11 10 10 9
12 12 13 11 11 11 12 12 11 12 12 12 13 13 14 13 12 12 12 13 14 14 12 12 11 11 12 12 12 11 8 5 7 9 9 9 9 10 10 10 9 8 8
10 11 8 12 11 13 12 11 11 12 12 13 13 12 14 12 12 11 11 11 12 12 11 10 9 8 10 10 10 9 6 5 8 6 7 8 8 9 8 8 8 8 7
10 9 8 8 10 13 12 12 12 12 12 12 13 13 13 12 10 9 11 9 10 9 9 8 8 8 9 10 10 8 6 7 8 7 8 8 6 7 7 7 7 7 6
7 8 9 11 9 7 10 11 12 13 13 12 12 6 7 8 9 11 11 8 8 8 7 7 8 7 12 10 8 6 11 5 6 5 8 7 5 7 7 7 7 7 6
9 8 7 7 10 9 8 9 7 7 8 8 8 6 9 8 8 8 7 6 5 4 5 5 5 7 13 8 7 11 4 7 5 5 8 6 5 6 6 6 6 5 6
8 7 9 7 7 8 8 8 4 5 6 7 7 5 6 5 4 4 5 4 4 5 3 6 8 3 6 6 4 6 6 6 5 6 9 3 3 4 4 4 4 6 7
8 8 7 8 6 6 7 7 6 6 6 6 7 5 4 4 4 3 4 4 2 4 4 4 6 5 8 7 7 7 8 6 6 6 8 3 3 4 5 6 7 6 7
10 9 8 8 7 8 5 5 5 6 6 8 5 5 4 4 4 4 4 4 3 3 6 6 7 7 8 9 8 7 8 7 7 5 6 5 2 4 5 5 6 8 8
9 10 10 9 8 7 6 6 6 5 7 5 5 6 5 4 4 4 3 4 4 4 6 6 5 6 7 8 8 8 7 7 6 4 5 6 6 6 6 6 7 7 9
9 10 11 9 9 7 8 8 6 6 6 6 6 5 5 3 5 1 4 3 4 5 5 5 5 5 6 6 7 6 8 5 7 5 2 2 5 10 6 4 5 7 10
10 10 10 9 10 9 8 5 5 5 6 5 4 4 4 5 4 2 3 4 4 3 3 5 4 4 5 4 4 4 5 5 5 3 1 3 2 5 10 7 2 6 7
10 11 11 10 11 10 8 6 5 6 5 4 3 3 5 5 4 2 3 4 1 4 4 5 4 4 4 3 7 5 4 3 3 3 1 3 3 4 4 7 5 3 4
11 11 11 10 11 9 7 5 5 5 4 4 3 5 5 4 4 2 4 3 2 3 5 5 4 3 3 2 3 5 2 1 1 2 3 5 4 6 7 6 6 6 6
13 13 11 10 10 8 8 7 6 7 5 4 4 5 5 3 4 2 2 1 1 5 5 5 5 3 4 2 3 4 3 4 3 2 2 3 3 4 5 5 4 5 2
13 13 12 11 11 10 8 6 5 5 6 5 5 4 4 4 3 3 1 2 4 5 5 4 1 2 3 2 2 2 3 6 4 1 1 2 4 3 3 3 5 6 5
14 14 13 13 11 10 8 7 5 4 4 6 6 6 6 5 4 2 3 3 1 4 6 2 3 3 4 3 3 5 3 1 3 5 4 1 4 3 5 6 5 5 4
14 14 14 13 12 10 10 9 10 8 7 6 6 5 5 5 4 3 3 2 1 3 3 2 5 4 5 2 2 3 4 5 6 3 6 2 3 2 4 5 5 3 2
14 14 14 13 12 11 10 8 9 9 6 6 5 7 5 5 5 5 4 4 1 3 3 2 3 5 3 4 3 1 1 1 1 5 6 5 1 2 3 3 3 4 3
15 14 14 15 14 13 10 11 11 10 7 7 7 7 7 6 7 6 6 4 3 1 3 2 2 2 5 4 4 3 4 5 3 3 3 3 3 4 3 2 4 4 5
Wind_Direction
129 113 107 100 108 112 115 110 103 93 88 91 90 92 93 91 93 92 99 100 98 104 112 105 103 104 106 106 103 104 109 106 106 107 100 99 94 93 86 94 147 92 88
128 112 112 112 108 106 106 103 103 96 91 90 87 87 86 89 91 89 96 96 93 95 94 89 88 96 109 111 114 115 108 104 100 115 116 99 88 94 80 60 56 82 83
115 122 112 107 106 102 99 99 97 93 93 88 87 89 89 91 90 89 82 81 83 82 83 83 77 88 109 116 110 104 99 104 107 121 179 80 88 80 79 80 86 82 81
120 116 107 107 105 105 103 97 98 94 87 86 89 90 88 87 90 89 87 86 79 74 77 73 84 81 87 100 98 95 97 95 101 215 123 110 90 84 82 83 77 80 97
98 94 104 109 106 107 107 100 95 95 91 88 85 90 87 84 86 92 90 87 82 76 79 82 77 76 94 97 99 96 92 101 144 99 73 69 80 82 81 90 97 74 51
133 104 116 113 111 106 99 99 94 95 88 88 82 83 89 88 87 93 87 85 83 74 79 89 95 84 83 85 90 92 95 118 184 93 118 81 71 79 74 69 70 66 69
110 120 121 123 112 108 104 98 96 93 91 88 92 81 86 85 92 92 92 92 96 95 71 83 82 85 85 86 88 89 81 33 97 80 94 88 76 70 73 71 69 68 67
110 116 126 121 118 117 107 102 100 96 88 87 88 92 92 88 90 94 99 98 99 98 86 84 97 87 85 87 86 83 67 334 95 75 63 78 71 73 71 71 71 68 65
117 97 123 128 131 113 115 111 102 97 94 93 92 97 94 90 90 93 93 96 95 101 95 90 88 84 96 94 94 94 79 327 95 87 107 92 75 71 73 71 67 62 53
124 123 116 128 122 141 131 116 102 93 94 96 86 87 97 97 101 106 126 99 102 99 94 101 91 79 117 103 105 111 155 219 96 119 80 74 74 78 69 59 53 46 34
140 129 129 121 101 102 121 110 106 103 95 116 110 99 178 88 102 105 70 104 102 104 105 111 107 100 128 119 121 176 221 97 95 80 86 69 54 55 52 41 34 26 11
143 144 110 132 126 141 103 99 114 117 86 87 83 92 83 77 57 79 95 107 112 141 149 139 135 183 214 141 151 206 107 111 93 90 80 59 45 45 41 24 11 357 347
157 153 147 114 143 135 118 111 167 128 127 113 103 86 63 97 86 102 132 139 142 194 140 171 174 115 69 94 99 91 104 111 116 89 89 84 47 31 25 358 339 341 340
163 150 145 146 133 148 133 164 134 119 128 131 87 117 123 120 99 74 76 111 104 67 81 79 84 88 110 109 99 100 100 105 90 91 112 94 1 341 343 335 332 335 333
172 151 161 149 155 141 172 130 121 130 147 118 135 83 73 81 87 97 76 67 56 93 99 89 92 106 110 108 104 96 94 81 93 92 103 128 295 304 299 304 313 320 328
168 158 154 169 154 150 135 148 139 149 127 142 117 89 88 56 36 93 96 78 84 70 64 81 87 110 99 108 101 91 83 95 75 57 79 133 198 240 274 296 309 323 339
179 156 156 165 160 163 144 161 160 153 155 147 116 119 82 26 84 32 78 61 63 92 128 124 132 137 118 109 95 99 109 101 102 93 83 24 151 196 214 266 316 334 336
170 162 164 169 159 165 151 161 160 157 151 136 140 138 104 95 68 109 71 55 44 95 104 121 120 120 101 98 93 95 99 109 112 118 133 315 4 339 185 181 311 320 330
160 165 171 169 167 164 154 167 172 124 171 145 150 130 105 118 96 43 64 75 41 83 88 138 118 128 118 99 133 117 112 106 128 90 60 316 335 290 328 132 154 254 2
162 166 176 173 156 171 160 172 158 147 157 156 144 108 137 106 86 5 86 51 303 84 114 103 122 78 71 49 90 102 109 145 293 308 332 295 5 334 343 330 327 109 88
176 171 178 173 167 176 181 183 168 169 155 153 152 134 133 93 93 39 63 111 347 56 49 142 159 147 112 120 172 152 158 202 205 222 297 309 358 334 346 342 330 357 30
186 183 181 180 176 191 200 201 192 169 169 155 149 152 132 134 138 162 339 53 357 98 82 125 240 142 109 76 306 282 202 173 181 158 230 323 359 351 3 335 354 8 353
185 189 184 186 187 191 207 192 188 153 159 183 162 174 164 165 174 166 151 22 27 296 88 48 56 355 111 80 1 321 254 337 319 146 165 312 333 359 353 330 335 340 347
186 188 185 187 187 194 193 184 189 199 187 187 187 178 164 178 173 171 158 155 339 19 53 66 64 7 304 86 158 53 352 353 327 319 156 158 263 314 25 344 24 26 325
183 186 185 188 187 192 195 202 186 214 179 182 182 149 210 161 200 195 186 179 205 240 115 49 36 22 66 4 33 90 353 306 318 317 329 1 153 83 34 59 33 24 4
182 187 187 185 192 201 197 205 219 196 198 184 185 176 181 184 184 200 194 199 183 220 218 231 353 73 27 21 6 350 359 345 14 324 323 62 63 98 78 65 9 6 353